#timestamp,LO_Frequency,Hit,StdDev 
1619841615.2,286047000.5,N
1619841635.0,286047001.7,N
1619841635.9,286047001.7,N
1619841655.8,286047002.2,N
1619841675.6,286047000.5,N
1619841695.4,286047000.5,N
1619841715.3,286047000.4,N
1619841735.1,286047001.2,N
1619841755.9,286047000.3,N
1619841775.7,286047000.2,N
1619841795.5,286047000.3,N
1619841815.4,286047002.4,N
1619841835.2,286047002.2,N
1619841855.0,286047001.9,N
1619841856.0,286047001.9,N
1619841875.8,286047002.2,N
1619841895.6,286047000.3,N
1619841915.5,286047000.8,N
1619841935.3,286047001.0,N
1619841955.1,286046999.9,N
1619841975.9,286047002.7,N
1619841995.7,286047000.2,N
1619842015.6,286047000.0,N
1619842035.4,286047001.9,N
1619842055.2,286047002.8,N
1619842075.1,286046999.8,N
1619842076.0,286046999.8,N
1619842095.8,286047001.9,N
1619842115.7,286047002.6,N
1619842135.5,286047001.6,N
1619842155.3,286047002.8,N
1619842175.2,286047001.9,N
1619842195.9,286047002.8,N
1619842215.7,286047002.0,N
1619842235.6,286047005.7,Y
1619842255.4,286047003.7,P
1619842275.3,286047003.7,P
1619842295.1,286047004.0,P
1619842296.0,286047004.0,Y
1619842315.8,286046998.7,P
1619842335.7,286047001.5,N
1619842355.5,286047000.8,N
1619842375.3,286047000.8,N
1619842395.2,286046998.8,N
1619842415.0,286046999.1,N
1619842415.9,286046999.1,N
1619842435.8,286046998.9,N
1619842455.6,286046998.8,N
1619842475.4,286046998.0,N
1619842495.3,286046995.1,Y
1619842515.1,286046999.2,P
1619842535.9,286046999.5,N
1619842555.7,286046998.0,P
1619842575.5,286046996.6,Y
1619842595.4,286046999.5,P
1619842615.2,286046998.0,P
1619842635.0,286046998.0,P
1619842635.9,286046998.0,Y
1619842655.8,286046999.4,P
1619842675.6,286046994.9,P
1619842695.5,286047011.9,P
1619842715.3,286046996.3,N
1619842735.1,286046995.9,N
1619842755.9,286046993.8,N
1619842775.7,286046994.7,N
1619842795.6,286046994.3,N
1619842815.4,286046994.5,N
1619842835.2,286046991.8,N
1619842855.1,286046994.6,N
1619842856.0,286046994.6,N
1619842875.8,286046994.6,N
1619842895.6,286046995.4,N
1619842915.5,286046995.8,N
1619842935.3,286046997.4,N
1619842955.2,286046997.2,N
1619842975.9,286046995.3,N
1619842995.7,286046997.8,N
1619843015.6,286046996.7,N
1619843035.4,286046997.6,N
1619843055.2,286046995.3,N
1619843075.1,286046995.7,N
1619843076.0,286046995.7,N
1619843095.8,286046993.4,N
1619843115.7,286046995.5,N
1619843135.5,286046993.3,N
1619843155.3,286046993.3,N
1619843175.2,286046994.0,N
1619843195.9,286046997.9,N
1619843215.7,286046997.3,N
1619843235.6,286046997.3,N
1619843255.4,286046996.7,N
1619843275.2,286046997.6,N
1619843295.1,286046997.4,N
1619843296.0,286046997.4,N
1619843315.8,286046995.4,N
1619843335.7,286046996.1,N
1619843355.5,286046996.4,N
1619843375.3,286046996.4,N
1619843395.2,286046995.5,Y
1619843415.0,286047000.4,P
1619843415.9,286047000.4,N
1619843435.8,286046998.6,N
1619843455.6,286047001.2,N
1619843475.4,286047001.1,N
1619843495.3,286047001.0,N
1619843515.1,286047001.1,N
1619843535.8,286047000.0,N
1619843555.7,286047000.0,N
1619843575.5,286047000.1,N
1619843595.4,286047000.3,N
1619843615.2,286047000.4,N
1619843635.0,286047000.7,N
1619843635.9,286047000.7,N
1619843655.8,286046999.9,N
1619843675.6,286047000.0,N
1619843695.4,286047000.5,N
1619843715.3,286046999.7,N
1619843735.1,286047002.2,N
1619843755.9,286047000.2,N
1619843775.7,286047000.9,N
1619843795.5,286047002.4,N
1619843815.4,286047001.6,N
1619843835.2,286047003.9,Y
1619843855.0,286047001.6,P
1619843855.9,286047001.6,N
1619843875.8,286047002.3,P
1619843895.6,286047001.4,N
1619843915.5,286047001.9,Y
1619843935.3,286046999.3,P
1619843955.1,286046998.8,N
1619843975.9,286046998.7,N
1619843995.7,286046997.2,N
1619844015.5,286046996.9,N
1619844035.4,286046997.3,N
1619844055.2,286046997.8,N
1619844075.1,286046997.8,N
1619844076.0,286046997.8,N
1619844095.8,286046997.6,N
1619844115.6,286046996.1,Y
1619844135.5,286046999.1,P
1619844155.3,286046998.5,P
1619844175.1,286046998.1,P
1619844195.9,286047000.1,N
1619844215.7,286047000.6,N
1619844235.6,286047000.8,N
1619844255.4,286047000.4,N
1619844275.2,286047000.3,N
1619844295.1,286047001.6,N
1619844296.0,286047001.6,N
1619844315.8,286047002.1,N
1619844335.7,286047002.7,N
1619844355.5,286047000.3,N
1619844375.3,286046999.8,N
1619844395.2,286047002.6,N
1619844415.9,286047002.4,N
1619844435.7,286047000.6,N
1619844455.6,286047000.2,N
1619844475.4,286046999.9,N
1619844495.2,286047000.0,N
1619844515.1,286047001.1,N
1619844516.0,286047001.1,N
1619844535.8,286047000.9,N
1619844555.7,286047001.0,N
1619844575.5,286046999.9,N
1619844595.3,286047000.5,N
1619844615.2,286047001.1,N
1619844635.0,286047001.2,N
1619844635.9,286047001.2,N
1619844655.8,286047002.3,N
1619844675.6,286047000.1,N
1619844695.4,286047000.1,N
1619844715.3,286047000.7,N
1619844735.1,286046998.7,N
1619844755.8,286047000.6,N
1619844775.7,286046998.5,N
1619844795.5,286046998.1,N
1619844815.4,286047002.3,N
1619844835.2,286047004.4,Y
1619844855.0,286047002.4,P
1619844855.9,286047002.4,N
1619844875.8,286047002.8,P
1619844895.6,286047001.8,N
1619844915.4,286047002.2,Y
1619844935.3,286047001.2,P
1619844955.1,286046998.4,P
1619844975.9,286046996.9,N
1619844995.7,286046996.7,N
1619845015.5,286046999.5,N
1619845035.4,286046998.3,N
1619845055.2,286046998.4,N
1619845075.0,286047001.2,N
1619845076.0,286047001.2,N
1619845095.8,286047001.0,N
1619845115.6,286046998.4,N
1619845135.5,286047000.6,N
1619845155.3,286046998.2,N
1619845175.1,286046999.1,N
1619845195.9,286046998.3,N
